Meteo pe oră la Dzinaga

Astăzi, 3 Martie, Miercuri

Timp Temperatura Precipitaţii Vânt Presiune Umiditate
00:00 -11°C° 0 mm 4 m/s 631 mmHg 84%
01:00 -11°C° 0 mm 4 m/s 631 mmHg 83%
02:00 -11°C° 0 mm 4 m/s 630 mmHg 83%
03:00 -12°C° 0 mm 4 m/s 630 mmHg 82%
04:00 -12°C° 0 mm 4 m/s 629 mmHg 82%
05:00 -12°C° 0 mm 4 m/s 629 mmHg 82%
06:00 -12°C° 0 mm 4 m/s 628 mmHg 82%
07:00 -11°C° 0 mm 4 m/s 629 mmHg 82%
08:00 -11°C° 0 mm 5 m/s 629 mmHg 82%
09:00 -8°C° 0 mm 5 m/s 629 mmHg 82%
10:00 -8°C° 0 mm 5 m/s 629 mmHg 84%
11:00 -7°C° 0 mm 4 m/s 629 mmHg 85%
12:00 -5°C° 0 mm 4 m/s 629 mmHg 86%
13:00 -5°C° 0.2 mm 4 m/s 629 mmHg 86%
14:00 -5°C° 0.2 mm 3 m/s 629 mmHg 86%
15:00 -5°C° 0.2 mm 3 m/s 629 mmHg 86%
16:00 -6°C° 0.2 mm 3 m/s 629 mmHg 89%
17:00 -7°C° 0.2 mm 2 m/s 629 mmHg 92%
18:00 -8°C° 0.2 mm 2 m/s 628 mmHg 95%
19:00 -8°C° 0.5 mm 2 m/s 629 mmHg 96%
20:00 -7°C° 0.5 mm 1 m/s 630 mmHg 96%
21:00 -8°C° 0.5 mm 1 m/s 630 mmHg 96%
22:00 -8°C° 0.4 mm 1 m/s 630 mmHg 95%
23:00 -8°C° 0.4 mm 1 m/s 630 mmHg 95%

Mâine, 4 Martie, Joi

Timp Temperatura Precipitaţii Vânt Presiune Umiditate
00:00 -8°C° 0.4 mm 1 m/s 630 mmHg 94%
01:00 -10°C° 0.1 mm 2 m/s 630 mmHg 93%
02:00 -10°C° 0.1 mm 2 m/s 631 mmHg 91%
03:00 -12°C° 0.1 mm 2 m/s 631 mmHg 89%
04:00 -12°C° 0.1 mm 2 m/s 631 mmHg 88%
05:00 -13°C° 0.1 mm 3 m/s 631 mmHg 87%
06:00 -13°C° 0.1 mm 3 m/s 631 mmHg 85%
07:00 -9°C° 0 mm 2 m/s 632 mmHg 83%
08:00 -8°C° 0 mm 2 m/s 633 mmHg 80%
09:00 -4°C° 0 mm 1 m/s 633 mmHg 78%
10:00 -3°C° 0 mm 1 m/s 633 mmHg 80%
11:00 -2°C° 0 mm 1 m/s 633 mmHg 81%
12:00 -1°C° 0 mm 1 m/s 633 mmHg 83%
13:00 -1°C° 0 mm 1 m/s 633 mmHg 84%
14:00 -1°C° 0 mm 1 m/s 633 mmHg 85%
15:00 -3°C° 0 mm 2 m/s 632 mmHg 86%
16:00 -5°C° 0 mm 2 m/s 632 mmHg 84%
17:00 -6°C° 0 mm 2 m/s 631 mmHg 82%
18:00 -8°C° 0 mm 2 m/s 630 mmHg 80%
19:00 -10°C° 0 mm 3 m/s 630 mmHg 73%
20:00 -10°C° 0 mm 3 m/s 630 mmHg 65%
21:00 -10°C° 0 mm 3 m/s 630 mmHg 58%
22:00 -10°C° 0 mm 3 m/s 630 mmHg 55%
23:00 -10°C° 0 mm 3 m/s 630 mmHg 53%

Poimâine, 5 Martie, Vineri

Timp Temperatura Precipitaţii Vânt Presiune Umiditate
00:00 -10°C° 0 mm 3 m/s 630 mmHg 50%
01:00 -10°C° 0 mm 3 m/s 630 mmHg 51%
02:00 -9°C° 0 mm 3 m/s 629 mmHg 51%
03:00 -9°C° 0 mm 3 m/s 629 mmHg 51%
04:00 -9°C° 0 mm 3 m/s 629 mmHg 47%
05:00 -8°C° 0 mm 2 m/s 629 mmHg 43%
06:00 -8°C° 0 mm 2 m/s 629 mmHg 39%
07:00 -3°C° 0 mm 1 m/s 630 mmHg 43%
08:00 -1°C° 0 mm 1 m/s 630 mmHg 48%
09:00 0°C° 0 mm 0 m/s 631 mmHg 52%
10:00 +1°C° 0 mm 0 m/s 631 mmHg 56%
11:00 +1°C° 0 mm 0 m/s 631 mmHg 60%
12:00 +3°C° 0 mm 1 m/s 631 mmHg 65%
13:00 +3°C° 0 mm 1 m/s 631 mmHg 69%
14:00 +3°C° 0 mm 1 m/s 630 mmHg 74%
15:00 +3°C° 0 mm 1 m/s 630 mmHg 78%
16:00 +2°C° 0 mm 1 m/s 630 mmHg 80%
17:00 0°C° 0 mm 1 m/s 629 mmHg 82%
18:00 -4°C° 0 mm 2 m/s 629 mmHg 85%
19:00 -4°C° 0 mm 2 m/s 629 mmHg 74%
20:00 -6°C° 0 mm 3 m/s 630 mmHg 63%
21:00 -6°C° 0 mm 3 m/s 630 mmHg 52%
22:00 -6°C° 0 mm 3 m/s 630 mmHg 51%
23:00 -7°C° 0 mm 4 m/s 630 mmHg 50%

6 Martie, Sâmbătă

Timp Temperatura Precipitaţii Vânt Presiune Umiditate
00:00 -7°C° 0 mm 4 m/s 630 mmHg 49%
01:00 -7°C° 0 mm 4 m/s 630 mmHg 46%
02:00 -7°C° 0 mm 4 m/s 629 mmHg 44%
03:00 -7°C° 0 mm 4 m/s 629 mmHg 42%
04:00 -7°C° 0 mm 4 m/s 629 mmHg 42%
05:00 -7°C° 0 mm 4 m/s 630 mmHg 42%
06:00 -5°C° 0 mm 4 m/s 630 mmHg 42%
07:00 -4°C° 0 mm 4 m/s 630 mmHg 47%
08:00 -2°C° 0 mm 4 m/s 630 mmHg 51%
09:00 -1°C° 0 mm 4 m/s 631 mmHg 56%
10:00 +1°C° 0 mm 3 m/s 631 mmHg 59%
11:00 +2°C° 0 mm 3 m/s 630 mmHg 63%
12:00 +3°C° 0 mm 3 m/s 630 mmHg 66%
13:00 +3°C° 0 mm 3 m/s 630 mmHg 67%
14:00 +3°C° 0 mm 3 m/s 629 mmHg 68%
15:00 +3°C° 0 mm 3 m/s 629 mmHg 69%
16:00 +1°C° 0 mm 3 m/s 628 mmHg 67%
17:00 -1°C° 0 mm 3 m/s 628 mmHg 66%
18:00 -3°C° 0 mm 4 m/s 627 mmHg 64%
19:00 -4°C° 0 mm 4 m/s 627 mmHg 63%
20:00 -4°C° 0 mm 4 m/s 628 mmHg 63%
21:00 -4°C° 0 mm 4 m/s 628 mmHg 63%
22:00 -4°C° 0 mm 4 m/s 627 mmHg 67%
23:00 -5°C° 0 mm 4 m/s 627 mmHg 72%

7 Martie, Duminică

Timp Temperatura Precipitaţii Vânt Presiune Umiditate
00:00 -5°C° 0 mm 4 m/s 627 mmHg 76%
01:00 -5°C° 0 mm 4 m/s 627 mmHg 79%
02:00 -5°C° 0 mm 4 m/s 627 mmHg 81%
03:00 -7°C° 0 mm 4 m/s 627 mmHg 84%
04:00 -6°C° 0.1 mm 3 m/s 627 mmHg 86%
05:00 -6°C° 0.1 mm 3 m/s 627 mmHg 89%
06:00 -6°C° 0.1 mm 2 m/s 628 mmHg 92%
07:00 -5°C° 0.7 mm 2 m/s 628 mmHg 93%
08:00 -5°C° 0.7 mm 2 m/s 629 mmHg 94%
09:00 -4°C° 0.7 mm 2 m/s 629 mmHg 95%
10:00 -4°C° 0.9 mm 2 m/s 629 mmHg 95%
11:00 -4°C° 0.9 mm 3 m/s 629 mmHg 95%
12:00 -4°C° 0.9 mm 3 m/s 629 mmHg 96%
13:00 -4°C° 0.9 mm 3 m/s 630 mmHg 95%
14:00 -4°C° 0.9 mm 3 m/s 630 mmHg 94%
15:00 -4°C° 0.9 mm 3 m/s 630 mmHg 93%
16:00 -6°C° 0.4 mm 3 m/s 630 mmHg 95%
17:00 -7°C° 0.4 mm 3 m/s 630 mmHg 96%
18:00 -8°C° 0.4 mm 2 m/s 629 mmHg 97%
19:00 -9°C° 0.1 mm 2 m/s 629 mmHg 95%
20:00 -9°C° 0.1 mm 2 m/s 629 mmHg 94%
21:00 -12°C° 0.1 mm 3 m/s 629 mmHg 92%
22:00 -13°C° 0 mm 3 m/s 629 mmHg 90%
23:00 -13°C° 0 mm 3 m/s 629 mmHg 88%

8 Martie, Luni

Timp Temperatura Precipitaţii Vânt Presiune Umiditate
00:00 -13°C° 0 mm 3 m/s 628 mmHg 86%
01:00 -14°C° 0 mm 3 m/s 628 mmHg 81%
02:00 -13°C° 0 mm 2 m/s 627 mmHg 77%
03:00 -13°C° 0 mm 2 m/s 627 mmHg 72%
04:00 -14°C° 0 mm 3 m/s 627 mmHg 70%
05:00 -15°C° 0 mm 3 m/s 627 mmHg 67%
06:00 -15°C° 0 mm 3 m/s 627 mmHg 65%
07:00 -13°C° 0 mm 3 m/s 627 mmHg 68%
08:00 -10°C° 0 mm 3 m/s 627 mmHg 72%
09:00 -8°C° 0 mm 3 m/s 628 mmHg 75%
10:00 -8°C° 0 mm 4 m/s 628 mmHg 77%
11:00 -7°C° 0 mm 4 m/s 627 mmHg 78%
12:00 -5°C° 0 mm 4 m/s 627 mmHg 80%
13:00 -5°C° 0.1 mm 4 m/s 627 mmHg 82%
14:00 -4°C° 0.1 mm 3 m/s 627 mmHg 85%
15:00 -4°C° 0.1 mm 3 m/s 626 mmHg 87%
16:00 -5°C° 0.2 mm 3 m/s 626 mmHg 89%
17:00 -6°C° 0.2 mm 3 m/s 626 mmHg 90%
18:00 -7°C° 0.2 mm 3 m/s 625 mmHg 91%
19:00 -7°C° 0.2 mm 3 m/s 625 mmHg 90%
20:00 -7°C° 0.2 mm 3 m/s 626 mmHg 90%
21:00 -7°C° 0.2 mm 3 m/s 626 mmHg 89%
22:00 -7°C° 0.5 mm 3 m/s 626 mmHg 89%
23:00 -7°C° 0.5 mm 3 m/s 626 mmHg 89%
Arată mai mult

Formular de consimțământ

Meteoprog și furnizorii noștri de servicii pot stoca și accesa date personale, precum cookies, identificatori de dispozitiv sau alte tehnologii similare pe dispozitivul dumneavoastră și procesa astfel de date pentru a personaliza conținutul și reclamele, dar și pentru a oferi caracteristici de social media și pentru a analiza traficul.

  • Stocarea și/sau accesarea informațiilor pe dispozitivul dumneavoastră

    Cookies, identificatori de dispozitiv sau alte informații pot fi stocate sau accesate pe dispozitiv în scopurile indicate mai sus.

  • Reclame și conținut personalizat, evaluarea reclamelor și a conținutului, informații despre audiențe și dezvoltarea produselor

    Reclamele și conținutul pot fi personalizate pe baza unui profil. Pot fi adăugate date suplimentare pentru a personaliza mai bine reclamele și conținutul. Performanța reclamelor și conținutului poate fi măsurată. Pot fi obținute informații despre utilizatorii care au văzut reclamele și conținutul. Aceste date pot fi utilizate pentru a dezvolta sau îmbunătăți experiența utilizatorilor, sistemele și software-ul.

Dând clic pe ‘Sunt de acord’, permiteți utilizarea cookie-urilor menționate, a identificatorilor de dispozitiv, balizelor web sau altor tehnologii similare. Setările pot fi modificate din browser-ul dispozitivului dumneavoastră.

În anumite scopuri, interesele legitime pot prima asupra consimțământului. Puteți citi mai multe informații în acest sens în Politica privind Confidențialitatea Datelor și Cookie.